Regional Weather Roundup
Issued by NWS

Home | Current Version | Previous Version | Graphics & Text | Print | Product List | Glossary On
Versions: 1 2 3 4 5 6 7 8 9 10 11 12 13 14 15 16 17 18 19 20 21 22 23 24 25 26 27 28 29 30 31 32 33 34 35 36 37 38 39 40 41 42 43 44 45 46 47 48 49 50
678
ASUS45 KCYS 291910
RWRWY

WYOMING REGIONAL WEATHER ROUNDUP
NATIONAL WEATHER SERVICE CHEYENNE WY
100 PM MDT FRI APR 29 2016

NOTE:  "FAIR" INDICATES FEW OR NO CLOUDS BELOW 12,000 FEET
WITH NO SIGNIFICANT WEATHER AND/OR OBSTRUCTIONS TO VISIBILITY.

WYZ001-292000-
YELLOWSTONE NATIONAL PARK

CITY           SKY/WX    TMP DP  RH WIND       PRES   REMARKS
LK YELLOWSTONE   N/A     41  23  48 E6        29.90F
W YELLOWSTONE  NOT AVBL

$$
WYZ002>013-054>058-071-098>099-292000-
NORTHERN WYOMING

CITY           SKY/WX    TMP DP  RH WIND       PRES   REMARKS
JACKSON        PTSUNNY   46  27  46 S9        29.87F
CODY           CLOUDY    41  30  65 CALM      29.94F
GREYBULL       CLOUDY    49  25  39 VRB5      29.93F
WORLAND        CLOUDY    47  29  49 CALM      29.94F
SHERIDAN       CLOUDY    44  29  55 CALM      29.98F
BUFFALO          N/A    N/A N/A N/A MISG      29.98F
GILLETTE       CLOUDY    45  32  60 E9        30.00F
HULETT         CLOUDY    43  36  75 E9        30.05S
NEWCASTLE      MOCLDY    43  32  65 CALM      30.02F

$$
WYZ014>020-022>026-101>103-292000-
CENTRAL WYOMING

CITY           SKY/WX    TMP DP  RH WIND       PRES   REMARKS
BIG PINEY      CLOUDY    40  23  50 SW8       29.91F WCI  34
PINEDALE       CLOUDY    37  28  70 N5        29.91F WCI  34
DUBOIS         CLOUDY    34  25  69 SE5       29.92F HAZE    WCI  30
LANDER         CLOUDY    39  33  79 SW5       29.92F
RIVERTON       CLOUDY    41  28  60 E6        29.94S
CASPER         CLOUDY    41  31  67 E15       29.94F
DOUGLAS        CLOUDY    40  32  73 E9        29.99F WCI  34

$$
WYZ021-027>030-104>119-292000-
SOUTHERN WYOMING

CITY           SKY/WX    TMP DP  RH WIND       PRES   REMARKS
EVANSTON       CLOUDY    37  25  61 CALM      29.91F
KEMMERER       CLOUDY    34  28  80 CALM      29.91F
FORT BRIDGER   CLOUDY    36  36 100 N3        29.94F
ROCK SPRINGS   CLOUDY    37  30  75 NE14      29.91F WCI  28
DIXON          CLOUDY    45  35  67 W12       29.87F
RAWLINS        CLOUDY    37  31  78 NE16      29.89F HAZE    WCI  28
SARATOGA       CLOUDY    37  32  81 N10G18    29.86F WCI  30
LARAMIE        LGT SNOW  33  28  81 E14       29.88F WCI  23
CHEYENNE       LGT SNOW  33  32  96 E8        29.93F VSB 1   WCI  26
TORRINGTON     CLOUDY    43  34  70 E9        29.98F
PINE BLUFFS    LGT RAIN  36  34  93 NE9       29.97S WCI  29

$$




USA.gov is the U.S. government's official web portal to all federal, state and local government web resources and services.